ASTRA 1N

Last updated on Fri Dec 19 2025 00:02:50 GMT+0000 (Coordinated Universal Time)

1 37775U 11041A 25352.55776797 .00000145 00000+0 00000+0 0 9994 2 37775 0.0683 31.6450 0001485 278.6119 357.0970 1.00272304 42713
UTC large
Height (km)
Speed (km/s)
/
Latitude / Longitude
Inclination (degrees)
Orbital Period (minutes)
Azimuth
Elevation
Range (km)
Doppler Factor

Next 0 passes for location: London (51.5072 / 0.1276)

Sorry there are no passes over London.